RH
86 87 88 86 84 81 78 75 73 73 72 74 74 70 67 65 64 62 62 62 60 55 51 50 48 43 41 39 39 38 36 35 35 36 36 37 39 39 38 39 40 43 46 48 48 48 49 50 51 52 54 55 55 56 58 59 57 57 57 57 55 47 46 42 40 44 49 49 41 40 36 32 36 41 44 46 48 49 49 47 46 45 41 39 41
84 85 85 85 82 79 78 76 74 72 72 72 70 68 64 62 61 60 60 60 57 52 49 48 45 41 40 39 38 36 34 33 35 37 37 38 39 40 39 40 42 44 46 47 48 48 49 49 50 52 54 55 56 58 57 58 56 57 58 58 57 51 51 47 42 47 54 54 44 41 41 37 36 39 43 46 49 52 52 49 45 42 40 41 41
83 82 83 83 76 74 74 73 74 72 71 69 67 65 61 59 58 57 57 57 53 49 47 46 43 41 40 38 36 33 33 34 36 38 38 38 40 41 40 41 42 43 44 47 48 49 49 50 51 52 52 52 53 55 55 56 56 56 57 58 57 54 54 50 44 49 56 55 46 40 42 43 43 43 45 48 54 57 55 51 47 44 44 45 44
81 79 79 77 71 69 69 69 71 70 69 66 65 62 58 57 57 56 54 53 49 47 45 43 41 41 40 37 34 33 35 35 36 36 37 39 41 42 41 42 43 43 44 46 47 48 49 50 51 51 50 50 51 53 53 55 55 55 56 57 57 55 54 52 47 50 57 54 48 41 37 42 46 46 48 51 56 59 56 54 53 51 51 51 49
77 76 74 70 67 67 66 67 68 68 66 63 63 60 56 56 55 54 52 49 46 45 43 41 41 40 39 36 34 35 36 36 36 37 39 40 42 43 43 43 44 44 44 46 46 46 48 51 52 51 51 50 51 53 54 53 54 55 56 57 57 56 54 52 49 50 56 55 52 45 35 38 44 45 46 49 54 58 58 59 58 57 58 55 53
71 70 69 66 66 66 65 64 63 65 65 61 60 59 56 55 53 51 49 47 45 43 41 40 40 40 39 37 36 37 37 37 38 40 41 41 42 43 42 43 43 43 44 45 45 45 47 50 52 52 52 50 51 53 53 53 53 55 57 58 58 57 54 53 51 50 54 54 54 50 39 35 39 44 47 49 52 55 59 62 62 61 61 56 53
68 66 64 64 65 64 62 61 59 61 63 60 58 57 56 53 50 49 47 45 43 41 39 38 38 40 40 38 38 39 38 38 40 41 41 41 42 42 42 43 42 43 44 46 45 46 46 47 51 52 53 51 52 52 52 54 55 56 57 58 59 57 56 55 54 50 49 49 50 51 44 38 37 40 45 49 52 53 56 59 61 61 60 57 53
65 64 62 62 63 62 60 59 58 59 59 58 57 57 55 51 49 48 45 42 40 38 36 37 38 40 40 40 39 40 39 39 40 40 41 41 42 42 43 43 43 44 45 46 46 46 46 46 49 52 52 52 53 54 53 55 56 57 58 58 58 58 57 58 56 51 48 49 50 52 47 41 41 41 42 45 49 52 53 55 57 57 57 56 53
61 60 59 59 59 59 58 56 56 58 59 57 56 56 53 48 45 44 41 38 37 35 35 37 39 40 42 42 41 41 40 39 40 40 41 42 43 45 45 45 44 46 46 46 46 47 47 48 49 51 51 53 55 56 55 56 57 56 56 56 56 57 59 60 59 54 51 52 51 52 49 41 43 46 44 45 47 48 50 51 53 53 52 52 49
59 58 57 56 56 55 54 54 53 56 58 56 55 54 50 45 41 39 37 36 35 35 36 38 40 42 43 43 42 41 40 39 40 42 44 44 46 47 47 46 46 48 47 46 48 48 49 49 50 51 51 52 53 55 55 57 58 56 54 53 53 55 58 61 61 58 57 56 52 51 50 41 40 46 47 48 49 47 48 49 51 50 49 47 44
56 56 56 54 53 52 51 51 51 53 54 53 54 51 46 40 37 36 35 35 36 37 39 41 42 44 44 44 44 43 42 41 42 44 47 48 48 50 49 48 49 50 49 48 49 50 51 50 50 51 51 51 52 53 53 54 56 55 54 53 53 55 58 58 57 58 60 59 55 50 47 38 36 44 46 46 48 48 48 49 51 50 49 47 45
53 53 53 52 51 50 48 46 46 48 49 50 50 48 44 39 37 37 36 37 39 41 43 44 45 46 46 46 47 46 46 45 47 49 50 51 51 53 54 53 52 50 52 52 51 52 52 51 50 49 49 51 52 53 53 51 53 54 54 55 55 56 56 57 56 58 59 59 58 52 45 36 34 42 45 45 45 47 46 44 45 46 46 46 46
53 52 51 50 48 48 47 44 44 45 46 47 47 46 45 43 40 39 39 41 44 46 47 47 46 47 48 48 49 50 50 50 52 53 54 55 55 57 58 57 56 55 58 56 54 56 54 51 50 48 48 50 51 54 53 50 50 51 52 55 56 57 57 58 60 61 61 60 62 59 49 38 32 38 43 45 45 43 43 39 39 40 41 43 45
54 53 50 48 47 46 45 43 42 42 43 44 45 46 48 48 44 40 41 43 46 48 48 47 46 47 48 49 50 51 52 52 53 55 57 58 58 59 59 60 60 59 60 59 58 58 54 50 48 48 51 54 54 52 52 51 50 50 51 52 53 58 60 60 62 65 67 65 65 64 56 44 34 34 38 42 45 42 40 38 36 37 39 41 44
54 51 49 47 47 46 44 41 41 41 41 41 43 46 48 48 44 41 42 44 46 48 48 47 48 48 49 49 51 53 53 54 54 56 57 57 58 58 58 60 61 60 60 60 61 59 53 49 49 51 55 59 56 51 48 48 50 53 55 54 52 55 59 59 61 63 66 67 67 66 63 55 43 36 35 37 43 45 43 39 35 36 37 39 41
53 50 49 48 47 46 43 42 42 41 41 42 43 44 45 44 43 42 43 44 45 48 49 49 49 49 50 50 50 53 54 53 53 53 54 54 55 55 56 58 58 59 60 60 61 59 54 51 53 57 59 60 56 51 48 47 50 56 59 59 56 56 57 58 58 59 62 64 66 67 66 63 54 43 38 37 38 44 47 41 36 35 35 36 39
51 50 50 49 47 45 43 42 42 43 43 43 44 43 43 43 44 44 43 43 45 47 49 50 49 49 49 49 50 50 51 50 50 50 51 52 53 53 53 56 58 60 62 63 61 59 57 56 57 59 60 59 58 55 51 51 54 56 57 57 58 59 60 60 59 59 60 59 61 64 65 65 62 51 43 41 38 38 42 42 38 36 36 37 37
49 48 48 47 46 45 44 43 43 44 43 43 43 43 43 43 45 44 42 42 44 46 48 49 49 49 49 49 49 48 48 48 47 48 50 49 49 49 50 53 56 59 62 63 61 58 56 55 54 53 54 55 54 53 49 50 52 53 51 51 54 59 61 63 64 64 63 61 59 60 63 65 65 60 50 45 42 36 35 37 38 36 37 41 39
47 46 45 44 43 43 44 43 42 42 42 41 42 42 42 43 44 43 41 42 44 46 47 49 50 49 47 47 47 46 46 45 45 46 45 44 44 46 47 48 52 55 57 56 53 50 47 47 48 47 49 51 50 49 48 49 51 51 51 51 56 61 63 66 68 70 69 66 64 62 63 64 64 64 60 52 45 38 34 33 34 35 37 40 42
45 45 44 43 42 41 42 42 41 39 38 38 39 40 40 41 41 40 40 43 45 47 48 48 49 47 45 43 43 43 43 43 42 42 42 42 42 44 44 44 46 48 50 47 42 38 37 38 40 42 45 48 50 51 53 54 54 53 54 58 62 65 65 66 69 70 71 68 66 64 63 65 64 63 64 60 52 43 37 34 33 33 36 37 40
42 43 42 42 40 39 40 40 39 37 36 37 38 38 39 39 39 39 41 43 45 46 46 46 46 45 44 43 43 43 43 43 42 41 42 44 43 42 41 39 39 40 41 40 36 33 33 34 36 39 41 44 49 52 53 55 56 54 55 58 60 63 63 64 65 66 69 68 66 63 62 65 66 64 64 63 59 53 43 36 34 33 35 36 36
40 39 41 40 38 37 37 38 38 37 37 38 37 37 38 39 39 38 40 42 43 44 44 44 43 43 44 44 45 46 46 46 44 44 46 46 46 44 42 39 38 39 40 40 38 35 34 36 39 41 41 41 45 47 48 51 53 51 51 52 53 55 56 57 57 58 62 66 66 64 61 62 65 66 64 62 61 61 52 41 36 34 34 34 34
42 40 42 40 36 35 36 37 39 38 39 39 38 37 38 39 38 38 40 42 42 43 43 43 43 44 45 45 47 47 48 49 49 50 50 48 48 50 50 45 42 42 44 44 42 40 39 39 41 41 42 43 45 46 45 48 48 45 43 43 45 46 46 46 47 48 50 55 59 60 60 59 61 64 65 64 61 60 58 49 40 37 35 33 33
45 44 45 41 36 35 36 38 39 39 40 39 38 38 38 39 39 38 39 40 41 42 42 42 44 45 44 45 46 47 47 47 49 49 49 51 52 54 54 51 49 49 47 46 44 43 45 46 45 41 41 44 46 45 44 44 43 40 38 38 41 41 39 39 39 40 41 43 46 51 57 57 55 57 62 65 64 61 60 56 48 42 38 35 33
45 45 46 42 38 37 37 38 39 39 39 39 39 39 38 39 39 38 38 38 40 41 41 41 42 43 42 42 43 44 45 45 46 47 50 53 55 58 58 57 58 57 53 52 50 49 51 51 51 51 49 48 46 43 41 39 38 38 37 36 36 37 37 36 35 36 37 36 36 41 47 52 52 51 55 61 64 64 63 62 59 52 45 39 35
45 45 44 42 39 38 38 37 38 39 39 40 41 40 38 40 39 38 38 37 38 39 40 39 40 42 42 42 42 44 46 47 48 50 52 53 57 61 61 60 60 59 55 56 56 53 56 56 56 60 60 55 47 41 39 37 37 37 35 34 34 36 37 34 33 34 35 33 32 34 36 42 48 49 49 56 61 65 66 65 64 62 56 47 41
43 43 42 41 38 38 37 37 39 40 40 41 42 40 37 38 38 38 38 36 37 39 40 39 38 40 42 44 45 48 53 53 52 52 54 55 57 59 58 56 55 56 55 53 53 50 52 56 59 61 57 53 46 39 37 37 36 35 34 35 35 37 38 34 33 33 32 31 30 31 32 34 40 46 48 51 56 63 67 65 65 67 65 58 51
42 41 41 40 38 39 37 37 40 39 40 40 38 38 36 37 39 38 38 39 40 41 42 40 40 41 41 44 48 52 56 53 51 54 59 60 58 56 56 54 50 51 52 51 50 48 48 53 58 59 52 48 45 40 37 35 35 35 35 36 35 37 37 33 33 34 31 30 28 29 33 33 33 39 45 47 49 55 62 65 66 68 70 67 61
43 40 40 39 38 38 36 37 39 38 40 40 35 35 35 38 41 40 39 40 42 44 44 43 45 45 42 43 45 50 55 54 53 57 59 58 55 53 53 53 51 48 48 49 50 51 53 53 55 55 50 47 47 43 38 35 35 36 36 37 37 35 32 30 32 34 33 33 31 30 33 34 32 34 41 45 46 50 55 60 65 67 68 69 65
41 39 38 39 38 37 35 37 38 37 39 41 38 37 36 38 41 40 40 40 42 45 46 46 48 47 45 44 44 48 53 55 56 56 54 51 49 48 47 49 52 52 49 47 47 50 52 52 52 52 50 48 46 43 37 35 37 36 36 37 35 31 29 30 30 32 35 34 33 33 33 31 30 31 34 39 42 46 51 56 60 62 62 64 64
39 37 35 36 38 37 35 35 37 37 38 39 39 38 37 38 40 41 41 41 42 45 45 45 47 48 48 47 48 50 51 51 51 51 49 47 45 43 43 44 46 48 47 44 43 45 49 47 46 48 47 45 42 38 36 37 38 36 35 33 30 27 28 31 29 30 34 33 32 33 30 28 30 29 29 35 39 40 45 51 56 57 57 58 60
36 36 34 34 37 38 36 35 36 36 36 36 35 35 35 37 40 41 41 43 43 44 44 44 46 49 50 48 49 51 50 49 46 45 44 44 42 40 41 42 42 41 42 41 41 44 46 44 43 42 43 41 37 34 35 38 37 35 33 29 27 25 26 28 27 28 33 33 33 34 30 29 32 31 29 31 34 36 39 44 48 51 53 54 55
34 36 35 34 37 39 37 35 35 36 35 32 32 33 33 36 39 40 41 42 41 44 45 44 43 47 52 52 52 53 50 48 45 43 41 39 39 39 39 42 44 42 42 42 41 42 44 44 45 45 43 41 35 32 33 34 31 27 25 23 22 24 24 24 26 27 33 35 34 34 31 30 32 33 32 29 30 33 35 37 39 42 45 49 53
33 34 35 34 35 37 36 33 32 33 32 31 32 31 32 35 37 37 39 40 39 40 40 40 41 44 50 52 53 52 49 48 47 44 41 39 39 39 39 42 43 40 41 42 40 42 46 48 49 49 46 42 37 33 30 29 26 20 19 20 19 22 23 22 24 28 33 35 34 35 34 34 32 31 31 32 32 32 35 36 33 33 35 39 46
32 32 34 34 33 34 33 31 30 30 29 28 30 29 30 32 32 32 34 35 36 36 34 35 38 42 46 49 50 49 47 47 45 42 41 40 39 39 40 42 42 39 39 39 39 44 50 50 48 48 46 44 41 36 31 28 24 20 18 19 18 19 21 20 23 29 34 34 35 37 36 37 37 33 30 32 33 31 34 36 34 35 37 40 47
31 32 33 32 32 31 31 30 28 27 25 25 28 28 29 29 28 28 29 32 34 34 33 35 38 41 43 47 49 49 48 47 44 41 40 38 38 39 39 41 42 41 40 40 42 47 49 47 46 45 42 43 41 34 30 27 22 20 19 19 19 19 20 21 24 29 33 34 35 37 38 38 40 39 34 31 31 33 35 36 39 45 43 43 48
32 31 31 30 30 30 29 29 27 25 23 24 28 30 29 28 26 26 27 30 33 34 35 37 40 42 42 44 48 49 48 46 42 40 39 37 37 38 38 39 40 41 42 45 47 48 49 49 47 43 42 41 33 24 23 24 21 21 20 19 21 20 19 21 25 27 31 34 35 37 38 39 39 39 38 33 29 30 33 34 36 40 39 37 41
32 30 30 30 29 28 28 28 28 27 25 24 28 30 29 28 27 27 28 30 34 36 37 38 40 42 43 44 46 46 44 43 40 40 39 37 35 37 40 42 42 42 44 47 49 48 49 50 46 43 42 34 22 15 16 20 21 20 19 19 21 22 21 22 27 30 33 35 37 38 37 37 38 37 36 37 35 33 34 36 35 35 34 34 35
31 30 29 29 28 28 27 27 29 29 27 25 26 27 27 26 27 29 31 31 33 36 38 40 40 41 45 46 45 43 43 42 40 40 39 36 34 34 39 42 42 43 45 48 49 47 46 46 43 39 33 22 15 17 18 18 19 20 20 21 23 24 22 24 30 35 37 36 36 37 37 37 38 38 36 37 40 41 41 41 40 39 37 33 32
31 30 30 29 27 28 28 28 29 29 27 26 25 25 24 24 25 27 30 30 31 34 38 41 41 42 46 46 43 42 42 41 40 38 36 35 33 33 36 38 41 45 46 46 46 45 43 42 37 27 19 16 18 22 22 21 22 21 22 25 27 27 24 26 33 38 40 39 37 37 37 39 39 40 40 38 38 39 40 40 38 39 39 36 35
30 29 30 29 28 28 29 28 28 28 26 25 24 23 24 24 24 25 26 28 30 32 35 38 39 42 45 44 41 40 39 38 36 36 35 34 33 34 35 37 41 43 42 42 42 41 38 33 24 16 16 20 22 24 21 21 23 23 23 27 29 28 27 30 35 39 41 39 37 36 35 37 37 37 39 39 37 36 35 36 35 35 36 37 37
28 28 29 30 29 29 29 27 27 27 26 24 23 22 23 23 24 25 26 27 28 29 31 32 34 38 42 41 40 39 37 35 33 33 34 35 35 36 37 39 40 39 40 40 37 33 29 24 17 16 20 22 23 25 23 20 23 25 25 24 26 30 32 34 38 41 41 39 38 38 37 36 35 34 33 34 34 33 31 31 33 34 34 35 36
26 27 28 29 30 28 27 26 25 25 26 25 23 22 23 24 24 26 27 29 29 29 30 30 31 35 39 40 39 38 36 35 33 33 33 34 36 39 41 40 40 41 40 36 30 27 25 22 19 19 23 25 25 25 23 22 24 26 24 23 25 31 33 34 38 43 45 42 40 40 41 40 37 33 29 29 30 30 28 26 27 29 31 32 32
24 25 26 26 27 27 26 25 23 24 25 25 23 22 23 24 26 27 29 31 33 33 33 34 34 37 39 41 40 37 35 35 34 33 34 35 37 41 42 41 40 39 36 30 27 27 25 23 22 22 25 28 28 26 25 25 25 25 23 23 26 31 36 37 41 46 48 46 41 38 39 41 40 34 28 26 25 26 25 23 22 23 25 26 27
22 23 24 24 25 25 25 25 23 22 23 24 22 21 24 25 26 28 31 32 34 36 36 37 39 40 40 40 38 35 33 34 34 34 36 37 39 40 40 39 37 34 31 29 27 28 29 29 26 25 26 28 29 28 27 25 25 24 21 21 24 30 38 42 44 47 48 48 44 39 39 39 37 33 30 28 25 24 24 24 22 22 22 22 22
21 21 22 23 24 24 25 24 23 22 22 23 22 20 23 25 25 27 30 32 33 35 37 38 40 40 38 37 37 36 34 35 35 36 38 40 38 36 36 35 32 30 30 29 28 31 34 33 31 29 27 29 32 30 28 26 25 24 22 23 25 29 34 39 44 48 49 49 46 41 38 35 31 30 32 32 28 26 26 26 26 25 24 23 22
20 21 22 22 23 23 23 23 23 22 21 22 22 20 21 23 25 25 27 30 33 34 35 37 39 38 37 37 37 37 37 37 36 37 39 41 38 34 32 31 29 29 29 30 32 35 36 36 36 33 27 30 35 34 32 30 27 26 28 29 29 29 30 34 41 44 44 44 44 42 38 33 30 30 32 32 31 29 27 27 27 26 26 26 25
21 21 21 22 22 22 23 23 24 23 21 21 22 21 20 22 24 25 26 28 31 33 34 35 35 35 36 37 37 37 38 39 37 37 40 40 36 32 30 29 29 30 31 32 36 39 42 43 42 39 34 33 35 37 37 37 34 32 30 30 29 29 30 33 36 37 36 36 37 38 36 35 35 35 32 29 30 30 29 28 28 26 26 27 27
23 22 22 22 22 22 23 24 24 24 22 20 21 21 20 21 22 24 25 26 29 32 33 34 34 33 35 37 37 37 38 38 36 37 39 37 33 30 30 31 34 36 38 39 41 45 47 48 48 48 44 41 40 41 41 40 40 38 35 31 28 27 30 31 32 32 32 32 33 34 35 38 42 41 37 33 32 33 31 30 30 30 30 30 30
26 25 25 24 24 24 24 25 24 24 23 20 20 21 21 20 21 22 24 25 28 30 32 34 35 34 34 36 37 36 37 35 34 36 37 34 32 34 38 41 44 46 48 48 50 51 51 51 52 52 49 48 48 48 48 46 42 41 41 37 31 29 30 30 30 31 32 31 32 34 37 41 43 42 40 37 36 36 35 34 34 35 36 36 35
29 28 27 27 28 28 28 28 27 27 26 23 21 21 22 21 20 21 22 24 28 29 30 34 34 33 33 33 33 33 33 32 32 34 34 34 38 42 46 47 47 49 51 53 56 57 55 53 55 54 51 51 52 55 58 55 48 44 42 40 37 35 33 32 31 32 33 34 34 36 40 42 42 40 38 39 40 39 39 39 37 35 36 35 35